Weather History for KCFV - February, 2014

Change the Weather History Date:

Tuesday, February 4, 2014

  Actual Average Record
Temperature  
Mean Temperature 27 °F -  
Max Temperature 33 °F 45 °F 75 °F (2008)
Min Temperature 21 °F 26 °F -4 °F (2011)
Degree Days  
Heating Degree Days 38    
Moisture  
Dew Point 24 °F    
Average Humidity 85    
Maximum Humidity 96    
Minimum Humidity 50    
Precipitation  
Precipitation 0.01 in - - ()
Sea Level Pressure  
Sea Level Pressure 30.01 in    
Wind  
Wind Speed 9 mph (NE)    
Max Wind Speed 17 mph    
Max Gust Speed 25 mph    
Visibility 4 miles    
Events Fog , Snow    
Averages and records for this station are not official NWS values.
T = Trace of Precipitation, MM = Missing Value Source: NWS Daily Summary

Daily Weather History Graph

Daily Weather History Graph

Search for Another Location

Airport or City:

Trip Planner

Search our weather history database for the weather conditions in past years. The results will help you decide how hot, cold, wet, or windy it might be!

Date:

Astronomy

Feb. 04, 2014 Rise Set
Actual Time 7:22 AM CST 5:50 PM CST
Civil Twilight 6:55 AM CST 6:17 PM CST
Nautical Twilight 6:24 AM CST 6:48 PM CST
Astronomical Twilight 5:53 AM CST 7:19 PM CST
Moon 10:09 AM CST (2/4) 11:36 PM CST (2/4)
Length of Visible Light 11h 22m
Length of Day
10h 28m
Waxing Crescent, 29% of the Moon is Illuminated
Feb 4
Waxing Crescent
Feb 6
First Quarter
Feb 14
Full
Feb 22
Last Quarter
Mar 1
New

Hourly Weather History & Observations

Time (CST) Temp. Windchill Dew Point Humidity Pressure Visibility Wind Dir Wind Speed Gust Speed Precip Events Conditions
12:52 AM 33.1 °F 27.7 °F 16.0 °F 50% 30.14 in 10.0 mi ENE 5.8 mph - N/A   Overcast
1:52 AM 32.0 °F 27.5 °F 16.0 °F 52% 30.14 in 10.0 mi ENE 4.6 mph - N/A   Overcast
2:52 AM 32.0 °F 28.7 °F 17.1 °F 54% 30.14 in 10.0 mi NE 3.5 mph - N/A   Overcast
3:52 AM 33.1 °F 24.9 °F 17.1 °F 52% 30.13 in 10.0 mi ENE 10.4 mph - N/A   Overcast
4:52 AM 32.0 °F 23.6 °F 18.0 °F 56% 30.11 in 9.0 mi ENE 10.4 mph - 0.00 in   Overcast
5:52 AM 30.0 °F 20.5 °F 21.9 °F 72% 30.08 in 10.0 mi NE 11.5 mph - 0.00 in   Overcast
6:52 AM 30.0 °F 20.5 °F 21.9 °F 72% 30.06 in 10.0 mi NE 11.5 mph - N/A   Overcast
7:17 AM 30.0 °F 21.1 °F 21.0 °F 69% 30.06 in 2.5 mi East 10.4 mph - 0.00 in Snow Light Snow
7:25 AM 28.0 °F 16.1 °F 23.0 °F 81% 30.04 in 1.0 mi East 16.1 mph - 0.00 in Snow Light Snow
7:37 AM 27.0 °F 16.1 °F 24.1 °F 89% 30.03 in 0.8 mi East 12.7 mph - 0.00 in Snow Light Snow
7:44 AM 27.0 °F 16.7 °F 24.1 °F 89% 30.02 in 0.8 mi ENE 11.5 mph - 0.00 in Snow Light Snow
7:52 AM 27.0 °F 17.3 °F 24.1 °F 89% 30.04 in 0.8 mi ENE 10.4 mph - 0.00 in Snow Light Snow
8:03 AM 27.0 °F 18.0 °F 25.0 °F 92% 30.03 in 1.8 mi ENE 9.2 mph - 0.00 in Snow Light Snow
8:08 AM 27.0 °F 18.0 °F 25.0 °F 92% 30.03 in 3.0 mi ENE 9.2 mph - 0.00 in Snow Light Snow
8:15 AM 28.0 °F 19.3 °F 24.1 °F 85% 30.02 in 8.0 mi ENE 9.2 mph - 0.00 in   Overcast
8:39 AM 28.9 °F 19.2 °F 21.0 °F 72% 30.00 in 1.8 mi ENE 11.5 mph 20.7 mph 0.00 in Snow Light Snow
8:50 AM 28.4 °F 18.0 °F 23.0 °F 80% 30.01 in 0.8 mi East 12.7 mph 23.0 mph 0.00 in Snow Light Snow
8:52 AM 28.0 °F 17.5 °F 23.0 °F 81% 30.03 in 0.8 mi East 12.7 mph - 0.00 in Snow Light Snow
9:10 AM 28.0 °F 17.5 °F 24.1 °F 85% 30.00 in 1.2 mi ENE 12.7 mph - 0.00 in Snow Light Snow
9:52 AM 28.0 °F 19.3 °F 24.1 °F 85% 30.02 in 0.8 mi ENE 9.2 mph - 0.00 in Snow Light Snow
10:38 AM 28.0 °F 20.8 °F 25.0 °F 88% 30.03 in 0.5 mi ESE 6.9 mph - 0.00 in Fog , Snow Snow
10:52 AM 28.0 °F 21.7 °F 26.1 °F 92% 30.04 in 0.5 mi ESE 5.8 mph - 0.00 in Fog , Snow Snow
11:52 AM 28.9 °F 20.4 °F 26.1 °F 89% 30.01 in 0.8 mi NE 9.2 mph - 0.00 in Snow Light Snow
12:14 PM 28.9 °F 20.4 °F 27.0 °F 92% 29.97 in 0.8 mi NE 9.2 mph - 0.00 in Snow Light Snow
12:35 PM 30.0 °F 22.4 °F 27.0 °F 88% 29.95 in 1.0 mi ENE 8.1 mph - 0.00 in Snow Light Snow
12:49 PM 30.2 °F 21.3 °F 26.6 °F 86% 29.94 in 2.0 mi ENE 10.4 mph - 0.00 in   Overcast
12:52 PM 30.0 °F 21.7 °F 27.0 °F 88% 29.96 in 2.0 mi ENE 9.2 mph - 0.00 in   Overcast
12:59 PM 30.0 °F 21.7 °F 27.0 °F 88% 29.93 in 2.5 mi ENE 9.2 mph - 0.00 in   Overcast
1:40 PM 28.9 °F 18.2 °F 26.1 °F 89% 29.91 in 3.0 mi East 13.8 mph - 0.01 in   Overcast
1:52 PM 28.9 °F 19.8 °F 27.0 °F 92% 29.94 in 3.0 mi East 10.4 mph - 0.01 in   Overcast
2:13 PM 30.0 °F 21.1 °F 27.0 °F 88% 29.91 in 4.0 mi East 10.4 mph - N/A   Overcast
2:25 PM 30.0 °F 21.7 °F 27.0 °F 88% 29.91 in 5.0 mi East 9.2 mph - N/A   Overcast
2:33 PM 30.0 °F 21.1 °F 27.0 °F 88% 29.90 in 4.0 mi East 10.4 mph - N/A   Overcast
2:41 PM 30.0 °F 21.7 °F 27.0 °F 88% 29.90 in 4.0 mi East 9.2 mph - N/A   Overcast
2:52 PM 30.0 °F 21.1 °F 27.0 °F 88% 29.92 in 5.0 mi East 10.4 mph - N/A   Overcast
3:52 PM 30.0 °F 22.4 °F 26.1 °F 85% 29.92 in 6.0 mi ENE 8.1 mph - N/A   Overcast
4:18 PM 30.0 °F 21.1 °F 27.0 °F 88% 29.90 in 2.5 mi ENE 10.4 mph - N/A   Overcast
4:52 PM 28.9 °F 19.8 °F 27.0 °F 92% 29.93 in 2.0 mi ENE 10.4 mph - N/A   Overcast
5:13 PM 28.9 °F 21.9 °F 27.0 °F 92% 29.91 in 1.5 mi NE 6.9 mph - N/A   Overcast
5:52 PM 28.0 °F 20.0 °F 27.0 °F 96% 29.95 in 1.0 mi ENE 8.1 mph - N/A   Overcast
6:17 PM 28.0 °F 21.7 °F 27.0 °F 96% 29.94 in 1.8 mi NE 5.8 mph - N/A   Overcast
6:23 PM 28.0 °F 21.7 °F 27.0 °F 96% 29.94 in 2.0 mi NE 5.8 mph - N/A   Overcast
6:52 PM 28.0 °F 21.7 °F 27.0 °F 96% 29.99 in 1.8 mi North 5.8 mph - N/A   Overcast
7:03 PM 28.0 °F 21.7 °F 27.0 °F 96% 29.97 in 2.0 mi North 5.8 mph - N/A   Overcast
7:24 PM 28.0 °F 21.7 °F 27.0 °F 96% 29.98 in 1.8 mi North 5.8 mph - N/A   Overcast
7:42 PM 28.9 °F 21.9 °F 27.0 °F 92% 29.98 in 2.0 mi North 6.9 mph - N/A   Overcast
7:52 PM 28.9 °F 22.8 °F 27.0 °F 92% 30.01 in 2.0 mi North 5.8 mph - N/A   Overcast
8:29 PM 28.9 °F 21.9 °F 27.0 °F 92% 30.01 in 2.5 mi North 6.9 mph - 0.00 in Snow Light Snow
8:44 PM 28.0 °F 18.1 °F 26.1 °F 92% 30.01 in 3.0 mi North 11.5 mph - 0.00 in   Overcast
8:52 PM 28.0 °F 18.6 °F 26.1 °F 92% 30.04 in 3.0 mi North 10.4 mph - 0.00 in Snow Light Snow
9:01 PM 27.0 °F 14.7 °F 25.0 °F 92% 30.03 in 2.5 mi North 16.1 mph 23.0 mph 0.00 in Snow Light Snow
9:09 PM 26.1 °F 14.5 °F 24.1 °F 92% 30.03 in 3.0 mi North 13.8 mph - 0.00 in Snow Light Snow
9:52 PM 24.1 °F 11.5 °F 21.9 °F 91% 30.09 in 5.0 mi NNW 15.0 mph - 0.00 in   Overcast
10:10 PM 24.1 °F 12.0 °F 21.0 °F 88% 30.07 in 5.0 mi North 13.8 mph - N/A   Overcast
10:52 PM 24.1 °F 11.5 °F 19.9 °F 84% 30.13 in 10.0 mi North 15.0 mph - N/A   Overcast
11:35 PM 21.9 °F 7.8 °F 18.0 °F 85% 30.13 in 10.0 mi NNW 17.3 mph 24.2 mph N/A   Overcast
11:52 PM 21.9 °F 8.7 °F 17.1 °F 82% 30.18 in 10.0 mi NNW 15.0 mph 25.3 mph N/A   Overcast